This demonstration page uses our WeatherBlox Daily Observations layout. Learn more.

Left ArrowRight Arrow

Hourly Observations for May 26, 2022

Temp ( °F °C ) Dew Point ( °F °C ) Humidity (%) Winds ( mph kmh ) Pressure ( in mb ) Visibility ( mi km ) Precip ( " mm )
12:15 am 00:15 Cloudy 63 17 52 11 68 68 SE 5 7 30.31 1026 10 16 0.00 0.00
12:35 am 00:35 Mostly Cloudy 63 17 50 10 64 64 SSE 6 9 30.31 1026 10 16 0.00 0.00
12:55 am 00:55 Cloudy 63 17 50 10 64 64 SSE 6 9 30.31 1026 10 16 0.00 0.00
1:15 am 01:15 Cloudy 63 17 50 10 64 64 SSE 7 11 30.31 1026 10 16 0.00 0.00
1:35 am 01:35 Cloudy 63 17 50 10 64 64 SSE 6 9 30.30 1026 10 16 0.00 0.00
1:55 am 01:55 Cloudy 63 17 50 10 64 64 S 5 7 30.30 1026 10 16 0.00 0.00
2:15 am 02:15 Cloudy 63 17 50 10 64 64 SSE 5 7 30.30 1026 10 16 0.00 0.00
2:35 am 02:35 Cloudy 63 17 50 10 64 64 SSE 5 7 30.29 1026 10 16 0.00 0.00
2:55 am 02:55 Cloudy 63 17 50 10 64 64 SSE 7 11 30.29 1026 10 16 0.00 0.00
3:15 am 03:15 Cloudy 61 16 50 10 68 68 SE 6 9 30.28 1025 10 16 0.00 0.00
3:35 am 03:35 Cloudy 61 16 50 10 68 68 SSE 6 9 30.28 1025 10 16 0.00 0.00
3:55 am 03:55 Cloudy 61 16 50 10 68 68 SE 5 7 30.27 1025 10 16 0.00 0.00
4:15 am 04:15 Cloudy 61 16 50 10 68 68 SSE 3 6 30.27 1025 10 16 0.00 0.00
4:35 am 04:35 Cloudy 61 16 52 11 72 72 S 3 6 30.28 1025 10 16 0.00 0.00
4:55 am 04:55 Cloudy 61 16 52 11 72 72 Calm 30.28 1025 10 16 0.00 0.00
5:15 am 05:15 Cloudy 61 16 52 11 72 72 Calm 30.28 1025 10 16 0.00 0.00
5:35 am 05:35 Cloudy 61 16 52 11 72 72 Calm 30.28 1025 10 16 0.00 0.00
5:55 am 05:55 Cloudy 61 16 52 11 72 72 SE 3 6 30.28 1025 10 16 0.00 0.00
6:15 am 06:15 Cloudy 61 16 52 11 72 72 SE 7 11 30.28 1025 10 16 0.00 0.00
6:35 am 06:35 Cloudy 61 16 54 12 77 77 SE 6 9 30.28 1025 10 16 0.00 0.00
6:55 am 06:55 Cloudy 61 16 54 12 77 77 SSE 6 9 30.28 1025 10 16 0.00 0.00
7:15 am 07:15 Cloudy 61 16 54 12 77 77 SSE 6 9 30.28 1025 10 16 0.00 0.00
7:35 am 07:35 Cloudy 61 16 54 12 77 77 SSE 6 9 30.28 1025 10 16 0.00 0.00
7:55 am 07:55 Cloudy 61 16 55 13 83 83 S 7 11 30.28 1025 10 16 0.00 0.00
8:15 am 08:15 Cloudy 61 16 55 13 83 83 SSE 5 7 30.28 1025 10 16 0.00 0.00
8:35 am 08:35 Cloudy 61 16 55 13 83 83 SSE 6 9 30.28 1025 10 16 0.00 0.00
8:55 am 08:55 Cloudy 63 17 55 13 77 77 S 7 11 30.28 1025 10 16 0.00 0.00
9:15 am 09:15 Cloudy 63 17 55 13 77 77 S 6 9 30.28 1025 10 16 0.00 0.00
9:35 am 09:35 Cloudy 63 17 57 14 83 83 SSE 5 7 30.28 1025 10 16 0.00 0.00
9:55 am 09:55 Cloudy 63 17 57 14 83 83 S 5 7 30.28 1025 10 16 0.00 0.00
10:15 am 10:15 Cloudy 64 18 59 15 83 83 S 3 6 30.27 1025 10 16 0.00 0.00
10:35 am 10:35 Cloudy 64 18 59 15 83 83 SSE 3 6 30.26 1025 10 16 0.00 0.00
10:55 am 10:55 Cloudy 66 19 61 16 83 83 Calm 30.25 1024 10 16 0.00 0.00
11:15 am 11:15 Cloudy 64 18 61 16 88 88 SSE 3 6 30.25 1025 10 16 0.00 0.00
11:35 am 11:35 Cloudy 66 19 61 16 83 83 S 5 7 30.25 1024 10 16 0.00 0.00
11:55 am 11:55 Cloudy 66 19 61 16 83 83 S 5 7 30.25 1024 10 16 0.00 0.00
12:15 pm 12:15 Cloudy 66 19 61 16 83 83 SSE 6 9 30.24 1024 10 16 0.00 0.00
12:35 pm 12:35 Cloudy 66 19 63 17 88 88 SSE 9 15 30.23 1024 10 16 0.00 0.00
12:55 pm 12:55 Cloudy 68 20 63 17 83 83 S 9 15 30.23 1024 10 16 0.00 0.00
1:15 pm 13:15 Cloudy 68 20 63 17 83 83 SSW 6 9 30.22 1023 10 16 0.00 0.00
1:35 pm 13:35 Cloudy 68 20 63 17 83 83 S 8 13 30.21 1023 10 16 0.00 0.00
1:55 pm 13:55 Cloudy 68 20 63 17 83 83 S 7 11 30.20 1023 10 16 0.00 0.00
2:15 pm 14:15 Cloudy 68 20 63 17 83 83 S 9 15 30.20 1023 10 16 0.00 0.00
2:35 pm 14:35 Cloudy 68 20 63 17 83 83 SSE 9 15 30.19 1022 10 16 0.00 0.00
2:55 pm 14:55 Cloudy 68 20 64 18 88 88 S 9 15 30.17 1022 10 16 0.00 0.00
3:15 pm 15:15 Cloudy 70 21 64 18 83 83 SSE 12 19 30.16 1021 10 16 0.00 0.00
3:35 pm 15:35 Cloudy 70 21 64 18 83 83 SSE 8 13 30.15 1021 10 16 0.00 0.00
3:55 pm 15:55 Cloudy 70 21 64 18 83 83 S 12 19 30.14 1021 10 16 0.00 0.00
4:15 pm 16:15 Cloudy 70 21 64 18 83 83 S 5 7 30.14 1021 10 16 0.00 0.00
4:35 pm 16:35 Cloudy 70 21 64 18 83 83 S 9 15 30.13 1020 10 16 0.00 0.00
4:55 pm 16:55 Cloudy 70 21 66 19 88 88 S 5 7 30.12 1020 10 16 0.00 0.00
5:15 pm 17:15 Cloudy 70 21 66 19 88 88 S 5 7 30.12 1020 10 16 0.00 0.00
5:35 pm 17:35 Cloudy 70 21 66 19 88 88 S 5 7 30.12 1020 10 16 0.00 0.00
5:55 pm 17:55 Cloudy 70 21 66 19 88 88 S 8 13 30.12 1020 10 16 0.00 0.00
6:15 pm 18:15 Cloudy 70 21 66 19 88 88 S 8 13 30.12 1020 10 16 0.00 0.00
6:35 pm 18:35 Cloudy 70 21 66 19 88 88 S 5 7 30.11 1020 10 16 0.00 0.00
6:55 pm 18:55 Cloudy 70 21 66 19 88 88 S 3 6 30.10 1019 10 16 0.00 0.00
7:15 pm 19:15 Cloudy 70 21 66 19 88 88 S 3 6 30.10 1019 10 16 0.00 0.00
7:35 pm 19:35 Cloudy 70 21 66 19 88 88 SSE 5 7 30.09 1019 10 16 0.00 0.00
7:55 pm 19:55 Cloudy 70 21 66 19 88 88 S 7 11 30.10 1019 10 16 0.00 0.00
8:15 pm 20:15 Cloudy 70 21 68 20 94 94 S 8 13 30.09 1019 7 11 0.00 0.00
8:35 pm 20:35 Cloudy 70 21 66 19 88 88 S 8 13 30.09 1019 10 16 0.00 0.00
8:55 pm 20:55 Cloudy 70 21 66 19 88 88 S 7 11 30.09 1019 10 16 0.00 0.00
9:15 pm 21:15 Cloudy 68 20 66 19 94 94 S 8 13 30.09 1019 10 16 0.00 0.00
9:35 pm 21:35 Cloudy 68 20 66 19 94 94 S 9 15 30.09 1019 10 16 0.00 0.00
9:55 pm 21:55 Cloudy 68 20 68 20 100 100 Calm 30.09 1019 7 11 0.00 0.00
10:15 pm 22:15 Cloudy 68 20 68 20 100 100 S 3 6 30.09 1019 7 11 0.00 0.00
10:35 pm 22:35 Cloudy 68 20 68 20 100 100 S 5 7 30.09 1019 10 16 0.00 0.00
10:55 pm 22:55 Cloudy 68 20 68 20 100 100 SSE 6 9 30.08 1019 10 16 0.00 0.00
11:15 pm 23:15 Cloudy 68 20 68 20 100 100 SSE 5 7 30.07 1018 10 16 0.00 0.00
11:35 pm 23:35 Cloudy 68 20 68 20 100 100 SSE 6 9 30.06 1018 10 16 0.00 0.00
11:55 pm 23:55 Cloudy 68 20 68 20 100 100 SSE 6 9 30.06 1018 10 16 0.00 0.00

Powered by AerisWeather